KB1WCR Weather Reports


Display with metric or nautical units.
time (UTC)temp
F
wind
direction
speed
MPH
gust
MPH
rain 1hr
in
rain 24hr
in
rain mn
in
humidity
%
barometer
mb
20260902204502 65 330 1.0 2.0 0.00 0.00 0.00 85 1022.3
20260902203958 65 212 1.0 1.0 0.00 0.00 0.00 84 1022.2
20260902203454 66 240 2.0 2.0 0.00 0.00 0.00 83 1022.4
20260902202952 66 299 0.0 0.0 0.00 0.00 0.00 84 1022.3
20260902202448 66 3 3.0 4.0 0.00 0.00 0.00 84 1022.2
20260902201945 66 327 1.0 1.0 0.00 0.00 0.00 83 1022.1
20260902201440 66 284 1.0 1.0 0.00 0.00 0.00 83 1022.3
20260902200940 66 187 0.0 1.0 0.00 0.00 0.00 84 1022.3
20260902200435 66 304 2.0 2.0 0.00 0.00 0.00 83 1022.2
20260902195930 66 339 0.0 1.0 0.00 0.00 0.00 83 1022.1
20260902195426 66 326 4.0 6.0 0.00 0.00 0.00 82 1022.5
20260902194920 66 263 1.0 2.0 0.00 0.00 0.00 83 1022.7
20260902194419 66 7 1.0 1.0 0.00 0.00 0.00 83 1022.5
20260902193915 66 57 3.0 4.0 0.00 0.00 0.00 82 1022.7
20260902193411 66 48 4.0 6.0 0.00 0.00 0.00 81 1022.9
20260902192909 66 318 0.0 1.0 0.00 0.00 0.00 83 1022.8
20260902192409 66 11 2.0 3.0 0.00 0.00 0.00 83 1022.8
20260902191908 66 259 1.0 2.0 0.00 0.00 0.00 82 1022.7
20260902191404 65 205 1.0 2.0 0.00 0.00 0.00 83 1022.8
20260902190858 65 60 3.0 3.0 0.00 0.00 0.00 83 1022.8
20260902190353 65 68 1.0 2.0 0.00 0.00 0.00 83 1022.8
20260902185849 65 352 2.0 2.0 0.00 0.00 0.00 83 1022.8
20260902185345 66 8 3.0 6.0 0.00 0.00 0.00 82 1023.1
20260902184840 65 95 1.0 1.0 0.00 0.00 0.00 83 1022.9
20260902184335 66 316 1.0 1.0 0.00 0.00 0.00 82 1022.9
20260902183830 66 320 1.0 1.0 0.00 0.00 0.00 83 1022.8
20260902183327 66 239 1.0 2.0 0.00 0.00 0.00 83 1022.9
20260902182822 66 347 1.0 1.0 0.00 0.00 0.00 82 1022.9
20260902182319 66 298 2.0 3.0 0.00 0.00 0.00 82 1022.9
20260902181815 66 287 1.0 1.0 0.00 0.00 0.00 81 1022.9
20260902181310 66 338 0.0 1.0 0.00 0.00 0.00 82 1023.0
20260902180804 67 177 1.0 1.0 0.00 0.00 0.00 83 1023.2
20260902180300 67 281 1.0 1.0 0.00 0.00 0.00 80 1023.2
20260902175755 67 138 1.0 1.0 0.00 0.00 0.00 82 1023.1
20260902175251 67 288 1.0 1.0 0.00 0.00 0.00 82 1023.1
20260902174746 67 249 1.0 2.0 0.00 0.00 0.00 82 1023.0
20260902174242 68 344 1.0 1.0 0.00 0.00 0.00 80 1023.0
20260902173737 67 259 2.0 2.0 0.00 0.00 0.00 81 1022.8
20260902173237 67 247 1.0 2.0 0.00 0.00 0.00 81 1022.9
20260902172731 68 349 2.0 3.0 0.00 0.00 0.00 80 1022.8
20260902172226 68 59 3.0 3.0 0.00 0.00 0.00 79 1022.8
20260902171721 68 37 5.0 6.0 0.00 0.00 0.00 79 1022.7
20260902171216 68 333 1.0 1.0 0.00 0.00 0.00 79 1022.7
20260902170712 68 4 6.0 9.0 0.00 0.00 0.00 77 1022.8
20260902170208 68 137 3.0 3.0 0.00 0.00 0.00 78 1022.7
20260902165702 69 8 1.0 1.0 0.00 0.00 0.00 78 1022.7
20260902165156 69 210 0.0 0.0 0.00 0.00 0.00 79 1022.7
20260902164652 68 323 1.0 1.0 0.00 0.00 0.00 80 1022.9
20260902164150 68 55 4.0 4.0 0.00 0.00 0.00 77 1022.8
20260902163646 68 194 4.0 7.0 0.00 0.00 0.00 77 1022.9
20260902163146 68 255 2.0 2.0 0.00 0.00 0.00 77 1023.0
20260902162644 68 194 2.0 2.0 0.00 0.00 0.00 79 1023.1
20260902162139 68 240 3.0 3.0 0.00 0.00 0.00 76 1023.2
20260902161634 68 199 3.0 3.0 0.00 0.00 0.00 77 1023.3
20260902161130 69 233 0.0 1.0 0.00 0.00 0.00 78 1023.3
20260902160626 69 321 0.0 0.0 0.00 0.00 0.00 78 1023.3
20260902160120 69 202 3.0 3.0 0.00 0.00 0.00 76 1023.3
20260902155613 69 276 0.0 1.0 0.00 0.00 0.00 76 1023.4
20260902155112 69 285 1.0 2.0 0.00 0.00 0.00 77 1023.4
20260902154607 69 243 1.0 1.0 0.00 0.00 0.00 76 1023.4
20260902154103 69 35 1.0 3.0 0.00 0.00 0.00 75 1023.5
20260902153601 68 318 0.0 1.0 0.00 0.00 0.00 75 1023.6
20260902153056 68 333 5.0 7.0 0.00 0.00 0.00 73 1023.7
20260902152553 69 3 1.0 1.0 0.00 0.00 0.00 71 1023.6
20260902152048 69 138 3.0 4.0 0.00 0.00 0.00 72 1023.5
20260902151544 69 6 2.0 3.0 0.00 0.00 0.00 75 1023.5
20260902151043 69 181 2.0 3.0 0.00 0.00 0.00 73 1023.4
20260902150538 68 111 1.0 3.0 0.00 0.00 0.00 77 1023.2
20260902150034 67 41 2.0 2.0 0.00 0.00 0.00 79 1023.2
20260902145529 68 51 1.0 2.0 0.00 0.00 0.00 76 1023.3
20260902145028 68 298 2.0 3.0 0.00 0.00 0.00 77 1023.2
20260902144526 68 333 1.0 2.0 0.00 0.00 0.00 76 1023.2
20260902144025 67 242 2.0 2.0 0.00 0.00 0.00 77 1023.3
20260902143520 68 194 3.0 3.0 0.00 0.00 0.00 77 1023.3
20260902143016 67 228 0.0 0.0 0.00 0.00 0.00 80 1023.4
20260902142512 67 306 1.0 1.0 0.00 0.00 0.00 79 1023.3
20260902142007 67 279 0.0 0.0 0.00 0.00 0.00 81 1023.1
20260902141501 67 319 0.0 0.0 0.00 0.00 0.00 82 1023.0
20260902140956 67 211 1.0 2.0 0.00 0.00 0.00 83 1023.2
20260902140451 66 289 1.0 2.0 0.00 0.00 0.00 85 1023.1
20260902135950 67 351 2.0 2.0 0.00 0.00 0.00 87 1022.8
20260902135446 67 40 1.0 2.0 0.00 0.00 0.00 88 1023.0
20260902134945 66 308 0.0 0.0 0.00 0.00 0.00 89 1022.8
20260902134441 66 45 1.0 2.0 0.00 0.00 0.00 89 1022.8
20260902133936 66 217 1.0 2.0 0.00 0.00 0.00 89 1022.9
20260902133431 66 123 3.0 3.0 0.00 0.00 0.00 90 1023.0
20260902132926 66 328 0.0 1.0 0.00 0.00 0.00 91 1023.0
20260902132421 66 350 2.0 3.0 0.00 0.00 0.00 91 1023.0
20260902131916 66 37 2.0 2.0 0.00 0.00 0.00 90 1023.0
20260902131413 66 359 1.0 2.0 0.00 0.00 0.00 91 1023.0
20260902130912 65 206 2.0 3.0 0.00 0.00 0.00 92 1023.0
20260902130408 64 326 0.0 0.0 0.00 0.00 0.00 94 1022.9
20260902125903 64 299 0.0 0.0 0.00 0.00 0.00 95 1022.9
20260902125359 63 254 1.0 1.0 0.00 0.00 0.00 96 1023.0
20260902124855 63 30 1.0 2.0 0.00 0.00 0.00 97 1023.0
20260902124350 63 324 1.0 1.0 0.00 0.00 0.00 98 1023.0
20260902123845 63 266 0.0 0.0 0.00 0.00 0.00 98 1023.1
20260902123342 62 302 0.0 0.0 0.00 0.00 0.00 99 1022.9
20260902122840 62 314 1.0 1.0 0.00 0.00 0.00 99 1022.9
20260902122336 62 41 2.0 3.0 0.00 0.00 0.00 99 1022.8
20260902121836 62 54 1.0 1.0 0.00 0.00 0.00 99 1023.1
20260902121331 62 352 1.0 1.0 0.00 0.00 0.00 99 1023.1
20260902120826 62 43 1.0 1.0 0.00 0.00 0.00 99 1023.3
20260902120323 62 354 0.0 0.0 0.00 0.00 0.00 99 1023.0
20260902115817 62 317 0.0 0.0 0.00 0.00 0.00 99 1023.0
20260902115314 62 282 0.0 0.0 0.00 0.00 0.00 99 1023.2
20260902114810 61 299 0.0 1.0 0.00 0.00 0.00 99 1022.9
20260902114305 61 282 0.0 1.0 0.00 0.00 0.00 99 1023.0
20260902113759 61 288 1.0 1.0 0.00 0.00 0.00 99 1023.0
20260902113255 61 328 1.0 1.0 0.00 0.00 0.00 99 1023.2
20260902112754 61 306 0.0 0.0 0.00 0.00 0.00 99 1022.9
20260902112252 61 336 1.0 2.0 0.00 0.00 0.00 99 1022.9
20260902111746 61 305 0.0 0.0 0.00 0.00 0.00 99 1022.8
20260902111243 61 304 0.0 0.0 0.00 0.00 0.00 99 1022.7
20260902110738 61 328 0.0 0.0 0.00 0.00 0.00 99 1022.9
20260902110234 61 337 0.0 0.0 0.00 0.00 0.00 99 1022.5
20260902105734 61 332 0.0 0.0 0.00 0.00 0.00 99 1022.7
20260902105229 61 327 0.0 0.0 0.00 0.00 0.00 99 1022.6
20260902104724 61 347 0.0 1.0 0.00 0.00 0.00 99 1022.5
20260902104221 61 18 4.0 4.0 0.00 0.00 0.00 99 1022.3
20260902103720 61 26 2.0 3.0 0.00 0.00 0.00 99 1022.3
20260902103214 61 358 0.0 0.0 0.00 0.00 0.00 99 1022.2
20260902102710 61 297 0.0 1.0 0.00 0.00 0.00 99 1022.5
20260902102207 61 293 0.0 0.0 0.00 0.00 0.00 99 1022.4
20260902101708 61 305 0.0 1.0 0.00 0.00 0.00 99 1022.3
20260902101202 61 316 0.0 0.0 0.00 0.00 0.00 99 1022.3
20260902100656 61 345 0.0 0.0 0.00 0.00 0.00 99 1022.2
20260902100151 61 315 0.0 1.0 0.00 0.00 0.00 99 1022.2
20260902095650 61 311 0.0 0.0 0.00 0.00 0.00 99 1022.2
20260902095144 61 309 0.0 0.0 0.00 0.00 0.00 99 1021.9
20260902094639 61 12 0.0 1.0 0.00 0.00 0.00 99 1022.2
20260902094136 61 31 1.0 1.0 0.00 0.00 0.00 99 1022.3
20260902093635 61 348 1.0 1.0 0.00 0.00 0.00 99 1022.1
20260902093130 61 313 0.0 0.0 0.00 0.00 0.00 99 1022.2
20260902092624 61 324 0.0 0.0 0.00 0.00 0.00 99 1022.4
20260902092120 61 319 0.0 0.0 0.00 0.00 0.00 99 1022.2
20260902091614 61 17 1.0 1.0 0.00 0.00 0.00 99 1022.2
20260902091111 61 326 0.0 0.0 0.00 0.00 0.00 99 1022.2
20260902090607 61 324 0.0 0.0 0.00 0.00 0.00 99 1022.1
20260902090105 61 293 0.0 0.0 0.00 0.00 0.00 99 1022.2
20260902085600 61 69 0.0 0.0 0.00 0.00 0.00 99 1022.2
20260902085055 61 324 0.0 0.0 0.00 0.00 0.00 99 1022.0
20260902084551 61 309 0.0 0.0 0.00 0.00 0.00 99 1022.2
20260902084046 61 330 0.0 0.0 0.00 0.00 0.00 99 1022.1
20260902083536 61 358 0.0 0.0 0.00 0.00 0.00 99 1022.2
20260902083036 61 330 0.0 0.0 0.00 0.00 0.00 99 1022.0
20260902082532 61 315 0.0 0.0 0.00 0.00 0.00 99 1022.2
20260902082028 61 343 0.0 0.0 0.00 0.00 0.00 99 1022.2
20260902081525 61 339 0.0 0.0 0.00 0.00 0.00 99 1022.0
20260902081024 61 311 0.0 0.0 0.00 0.00 0.00 99 1022.1
20260902080520 61 332 0.0 0.0 0.00 0.00 0.00 99 1022.2
20260902080016 61 316 0.0 0.0 0.00 0.00 0.00 99 1022.1
20260902075510 61 303 0.0 0.0 0.00 0.00 0.00 99 1021.9
20260902075006 61 325 0.0 0.0 0.00 0.00 0.00 99 1021.8
20260902074501 61 312 0.0 0.0 0.00 0.00 0.00 99 1021.8
20260902073956 61 341 1.0 1.0 0.00 0.00 0.00 99 1021.7
20260902073452 61 311 0.0 0.0 0.00 0.00 0.00 99 1021.7
20260902072948 61 308 0.0 0.0 0.00 0.00 0.00 99 1021.8
20260902072444 61 311 0.0 0.0 0.00 0.00 0.00 99 1021.6
20260902071940 61 309 0.0 0.0 0.00 0.00 0.00 99 1021.6
20260902071439 61 310 0.0 0.0 0.00 0.00 0.00 99 1021.6
20260902070936 61 308 0.0 0.0 0.00 0.00 0.00 99 1021.5
20260902070431 61 335 0.0 0.0 0.00 0.00 0.00 99 1021.5
20260902065930 61 309 0.0 0.0 0.00 0.00 0.00 99 1021.6
20260902065425 61 300 0.0 0.0 0.00 0.00 0.00 99 1021.6
20260902064921 61 309 0.0 0.0 0.00 0.00 0.00 99 1021.5
20260902064416 61 308 0.0 0.0 0.00 0.00 0.00 99 1021.3
20260902063911 61 303 0.0 0.0 0.00 0.00 0.00 99 1021.4
20260902063411 61 330 0.0 0.0 0.00 0.00 0.00 99 1021.3
20260902062907 62 304 0.0 0.0 0.00 0.00 0.00 99 1021.5
20260902062406 62 312 0.0 0.0 0.00 0.00 0.00 99 1021.4
20260902061905 62 310 0.0 0.0 0.00 0.00 0.00 99 1021.4
20260902061401 62 303 0.0 0.0 0.00 0.00 0.00 99 1021.7
20260902060857 62 306 0.0 0.0 0.00 0.00 0.00 99 1021.5
20260902060352 62 319 0.0 0.0 0.00 0.00 0.00 99 1021.5
20260902055848 62 299 0.0 0.0 0.00 0.00 0.00 99 1021.5
20260902055344 62 328 0.0 0.0 0.00 0.00 0.00 99 1021.7
20260902054839 62 314 0.0 0.0 0.00 0.00 0.00 99 1021.4
20260902054335 62 301 0.0 0.0 0.00 0.00 0.00 99 1021.6
20260902053830 62 305 0.0 0.0 0.00 0.00 0.00 99 1021.2
20260902053325 62 300 0.0 0.0 0.00 0.00 0.00 99 1021.3
20260902052824 62 296 0.0 0.0 0.00 0.00 0.00 99 1021.0
20260902052320 62 311 0.0 0.0 0.00 0.00 0.00 99 1020.9
20260902051820 62 275 1.0 1.0 0.00 0.00 0.00 99 1020.9
20260902051314 62 1 1.0 1.0 0.00 0.00 0.00 99 1020.8
20260902050809 63 304 0.0 0.0 0.00 0.00 0.00 99 1020.8
20260902050308 63 316 0.0 0.0 0.00 0.00 0.00 99 1020.6
20260902045803 63 309 0.0 0.0 0.00 0.00 0.00 99 1020.7
20260902045259 63 342 1.0 1.0 0.00 0.00 0.00 99 1020.6
20260902044755 63 292 0.0 0.0 0.00 0.00 0.00 99 1020.7
20260902044250 63 298 0.0 0.0 0.00 0.00 0.00 99 1020.6
20260902043744 63 297 0.0 0.0 0.00 0.00 0.00 99 1020.7
20260902043240 63 302 0.0 0.0 0.00 0.00 0.00 99 1020.6
20260902042739 63 304 0.0 0.0 0.00 0.00 0.00 99 1020.7
20260902042234 63 314 0.0 0.0 0.00 0.00 0.00 99 1020.6
20260902041730 63 321 0.0 0.0 0.00 0.00 0.00 99 1020.6
20260902041225 63 310 0.0 0.0 0.00 0.00 0.00 99 1020.4
20260902040724 63 306 0.0 0.0 0.00 0.00 0.00 99 1020.4
20260902040220 63 299 0.0 0.0 0.00 0.00 0.00 99 1020.4
20260902035718 63 306 0.0 0.0 0.00 0.00 0.00 99 1020.3
20260902035214 63 322 0.0 0.0 0.00 0.00 0.00 99 1020.5
20260902034713 63 308 0.0 0.0 0.00 0.00 0.00 99 1020.4
20260902034213 63 304 0.0 0.0 0.00 0.00 0.00 99 1020.5
20260902033711 63 333 0.0 0.0 0.00 0.00 0.00 99 1020.4
20260902033206 63 306 0.0 0.0 0.00 0.00 0.00 99 1020.2
20260902032705 63 299 0.0 0.0 0.00 0.00 0.00 99 1020.3
20260902032200 63 296 0.0 0.0 0.00 0.00 0.00 99 1020.3
20260902031654 63 296 0.0 0.0 0.00 0.00 0.00 99 1020.2
20260902031150 63 298 0.0 0.0 0.00 0.00 0.00 99 1020.1
20260902030646 63 308 0.0 0.0 0.00 0.00 0.00 99 1019.9
20260902030145 63 347 1.0 1.0 0.00 0.00 0.00 99 1019.9
20260902025644 63 344 0.0 0.0 0.00 0.00 0.00 99 1019.8
20260902025140 63 317 0.0 1.0 0.00 0.00 0.00 99 1019.7
20260902024635 63 312 0.0 0.0 0.00 0.00 0.00 99 1019.8
20260902024130 63 313 0.0 0.0 0.00 0.00 0.00 99 1019.9
20260902023626 63 301 0.0 0.0 0.00 0.00 0.00 99 1020.0
20260902023120 63 298 0.0 0.0 0.00 0.00 0.00 99 1019.9
20260902022619 63 304 0.0 0.0 0.00 0.00 0.00 99 1019.8
20260902022116 63 296 0.0 0.0 0.00 0.00 0.00 99 1020.0
20260902021611 63 303 0.0 0.0 0.00 0.00 0.00 99 1019.9
20260902021106 63 274 0.0 0.0 0.00 0.00 0.00 99 1020.0
20260902020602 63 329 0.0 0.0 0.00 0.00 0.00 99 1019.9
20260902020057 63 313 0.0 0.0 0.00 0.00 0.00 99 1019.9
20260902015553 63 356 0.0 0.0 0.00 0.00 0.00 99 1019.8
20260902015048 63 311 0.0 0.0 0.00 0.00 0.00 99 1020.0
20260902014544 63 330 0.0 0.0 0.00 0.00 0.00 99 1020.0
20260902014039 63 304 0.0 0.0 0.00 0.00 0.00 99 1020.2
20260902013539 63 318 0.0 0.0 0.00 0.00 0.00 99 1020.2
20260902013035 63 312 0.0 0.0 0.00 0.00 0.00 99 1020.1
20260902012530 63 305 0.0 0.0 0.00 0.00 0.00 99 1020.1
20260902012025 63 319 0.0 0.0 0.00 0.00 0.00 99 1020.1
20260902011520 63 322 0.0 0.0 0.00 0.00 0.00 99 1020.1
20260902011015 63 317 0.0 0.0 0.00 0.00 0.00 99 1020.0
20260902010515 63 292 0.0 0.0 0.00 0.00 0.00 99 1020.0
20260902010010 63 307 0.0 0.0 0.00 0.00 0.00 99 1019.9
20260902005508 63 269 0.0 0.0 0.00 0.00 0.00 99 1019.7
20260902005005 63 194 0.0 1.0 0.00 0.00 0.00 99 1019.8
20260902004504 63 312 0.0 0.0 0.00 0.00 0.00 99 1019.7
20260902003959 63 253 0.0 0.0 0.00 0.00 0.00 99 1020.0
20260902003454 63 301 0.0 0.0 0.00 0.00 0.00 99 1019.7
20260902002950 63 289 0.0 0.0 0.00 0.00 0.00 99 1019.5
20260902002445 63 311 0.0 0.0 0.00 0.00 0.00 99 1019.5
20260902001944 63 310 0.0 0.0 0.00 0.00 0.00 99 1019.4
20260902001439 63 327 1.0 1.0 0.00 0.00 0.00 99 1019.6
20260902000934 63 325 0.0 0.0 0.00 0.00 0.00 99 1019.4
20260902000429 64 3 1.0 1.0 0.00 0.00 0.00 99 1019.4
20260901235924 64 34 0.0 1.0 0.00 0.00 0.00 99 1019.4
20260901235419 64 317 0.0 0.0 0.00 0.00 0.00 99 1019.3
20260901234914 64 322 0.0 0.0 0.00 0.00 0.00 99 1019.4
20260901234408 64 314 0.0 0.0 0.00 0.00 0.00 99 1019.3
20260901233903 64 315 0.0 0.0 0.00 0.00 0.00 99 1019.5
20260901233358 64 19 0.0 0.0 0.00 0.00 0.00 99 1019.4
20260901232855 64 314 0.0 0.0 0.00 0.00 0.00 99 1019.3
20260901232349 64 317 0.0 1.0 0.00 0.00 0.00 99 1019.5
20260901231845 64 348 1.0 1.0 0.00 0.00 0.00 99 1019.5
20260901231341 64 337 1.0 2.0 0.00 0.00 0.00 99 1019.3
20260901230837 64 289 1.0 1.0 0.00 0.00 0.00 99 1019.3
20260901230336 64 292 2.0 2.0 0.00 0.00 0.00 99 1019.2
20260901225832 64 300 1.0 1.0 0.00 0.00 0.00 99 1019.5
20260901225331 64 46 1.0 1.0 0.00 0.00 0.00 99 1019.1
20260901224826 65 46 3.0 4.0 0.00 0.00 0.00 98 1019.0
20260901224323 65 36 1.0 2.0 0.00 0.00 0.00 98 1019.1
20260901223819 65 331 0.0 1.0 0.00 0.00 0.00 97 1019.1
20260901223314 66 338 1.0 2.0 0.00 0.00 0.00 97 1019.0
20260901222810 66 5 1.0 1.0 0.00 0.00 0.00 97 1019.0
20260901222306 66 194 1.0 1.0 0.00 0.00 0.00 97 1018.8
20260901221802 66 216 2.0 3.0 0.00 0.00 0.00 96 1019.0
20260901221256 66 199 3.0 4.0 0.00 0.00 0.00 95 1019.0
20260901220750 66 0 1.0 1.0 0.00 0.00 0.00 95 1019.0
20260901220244 66 112 2.0 3.0 0.00 0.00 0.00 94 1019.0
20260901215743 67 296 0.0 1.0 0.00 0.00 0.00 94 1019.0
20260901215237 67 281 2.0 2.0 0.00 0.00 0.00 93 1019.2
20260901214736 67 355 3.0 3.0 0.00 0.00 0.00 93 1018.9
20260901214229 67 12 2.0 3.0 0.00 0.00 0.00 92 1019.0
20260901213729 67 314 1.0 1.0 0.00 0.00 0.00 93 1018.8
20260901213229 67 119 1.0 2.0 0.00 0.00 0.00 93 1018.7
20260901212729 66 1 2.0 3.0 0.00 0.00 0.00 93 1018.7
20260901212225 67 101 3.0 3.0 0.00 0.00 0.00 92 1018.6
20260901211720 67 25 1.0 1.0 0.00 0.00 0.00 92 1018.6
20260901211216 67 356 2.0 3.0 0.00 0.00 0.00 92 1018.6
20260901210712 67 30 2.0 3.0 0.00 0.00 0.00 92 1018.5
20260901210208 68 76 4.0 6.0 0.00 0.00 0.00 91 1018.5
20260901205703 68 25 2.0 3.0 0.00 0.00 0.00 90 1018.3
20260901205158 68 199 1.0 1.0 0.00 0.00 0.00 91 1018.5
20260901204653 68 92 2.0 3.0 0.00 0.00 0.00 90 1018.5